Location: Putah Creek Observatory
(38.7021°N, 122.3865°W)
Time: 17:49:52
(UTC-07:00)

Daily predictions for brighter satellites

Satellite Brightness Start Highest point End
(mag) Time Altitude Azimuth Time Altitude Azimuth Time Altitude Azimuth
Cosmos 44 Rocket 3.4 18:38:29 10° SSW 18:43:04 56° ESE 18:47:41 10° NE
CORIOLIS 4.2 18:38:31 10° SSE 18:43:53 75° ENE 18:49:18 10° N
COSMOS 2428 3.3 18:38:42 10° N 18:43:55 36° ENE 18:49:06 10° SE
Cosmos 2366 rocket 4.1 18:39:10 10° S 18:45:23 86° W 18:51:35 10° N
Cosmos 2219 3.7 18:41:04 10° S 18:46:21 39° ESE 18:51:39 10° NE
Cosmos 2333 Rocket 3.5 18:42:11 10° N 18:46:29 21° NE 18:50:45 10° ESE
ERS-2 2.1 18:43:00 10° SSE 18:46:38 63° ENE 18:50:19 10° N
Cosmos 158 Rocket 4.1 18:44:01 10° S 18:48:56 56° ESE 18:54:02 10° NNE
GRACE-1 4.5 18:49:07 10° SSE 18:51:27 30° E 18:53:46 10° NNE
Cosmos 2297 Rocket 3.9 18:51:18 10° ESE 18:53:09 12° E 18:55:00 10° ENE
Cosmos 1726 3.3 18:50:21 10° SE 18:53:15 22° E 18:56:08 10° NE
YAOGAN 1 2.6 18:49:25 10° SSE 18:53:40 63° ENE 18:57:58 10° N
APEX 2.5 18:51:53 10° SSW 18:55:06 68° ESE 18:57:54 10° NNE
Cosmos 1048 Rocket 4.1 18:50:12 10° S 18:55:09 52° ESE 19:00:08 10° NNE
CZ-4 R/B 1.6 18:52:14 10° S 18:56:27 82° W 19:00:36 10° NNW
EO 1 Del DPAF 3.2 18:55:28 10° NNE 18:59:18 63° ESE 19:03:05 10° S
SL-24 R/B - RUBIN 2 4.1 18:57:33 10° NW 19:02:16 64° WSW 19:06:35 10° SSE
Landsat 4 4.3 18:59:00 10° N 19:02:40 59° WNW 19:06:20 10° SSW
Cosmos 1420 Rocket 4.0 18:57:39 10° NNW 19:02:58 70° ENE 19:08:13 10° SSE
CZ-2C R/B 4.3 19:01:43 10° N 19:06:10 61° WNW 19:10:30 10° SSW
DELTA 2 R/B (1) 4.0 19:02:16 10° W 19:07:46 62° SSW 19:13:16 10° ESE
CZ-4 R/B 4.4 19:04:38 10° SSE 19:08:45 85° ENE 19:12:56 10° N
Cosmos 2322 3.9 19:04:22 10° NNW 19:10:07 78° WSW 19:15:48 10° SSE
NOAA 12 4.4 19:07:08 10° SE 19:12:09 46° ENE 19:17:13 10° N
Meteor 1-28 Rocket 4.2 19:09:01 10° N 19:12:41 49° WNW 19:16:19 10° SSW
Cosmos 2221 2.4 19:09:41 10° S 19:13:59 76° E 19:18:21 10° N
Cosmos 2084 4.4 19:12:34 10° N 19:15:44 24° NE 19:17:29 18° E
Delta 2 Rocket 3.8 19:11:55 10° W 19:15:48 46° S 19:18:40 14° ESE
Cosmos 2219 Rocket 2.6 19:10:54 10° N 19:16:09 40° ENE 19:21:24 10° SE
Cosmos 1315 Rocket 3.0 19:12:49 10° NNW 19:16:56 79° W 19:21:03 10° S
METEOR-M 4.1 19:12:51 10° SSE 19:18:12 81° ENE 19:23:34 10° N
ALOS 2.5 19:14:00 10° SE 19:18:27 46° ENE 19:22:56 10° N
Cosmos 1934 Rocket 4.4 19:13:13 10° SSE 19:19:07 42° E 19:25:04 10° NNE
Cosmos 921 Rocket 3.6 19:15:43 10° NNW 19:20:06 62° WSW 19:24:22 10° S
Cosmos 1000 Rocket 4.5 19:14:30 10° N 19:20:40 61° E 19:26:44 10° SSE
Cosmos 1821 Rocket 4.0 19:15:02 10° S 19:21:03 59° E 19:27:12 10° NNE
SKYMED 2 3.6 19:17:39 10° NNE 19:22:01 86° WNW 19:26:21 10° SSW
Thor Agena Rocket 4.0 19:20:13 10° NNE 19:24:54 36° E 19:29:31 10° SSE
GP-B 4.3 19:21:33 10° N 19:25:47 45° W 19:30:00 10° SSW
Cosmos 2239 Rocket 4.4 19:20:19 10° S 19:26:22 65° E 19:32:27 10° NNE
Cosmos 1908 4.5 19:30:06 10° SSW 19:33:50 44° W 19:37:35 10° N
SJ-6B 4.3 19:37:15 19° NE 19:37:15 19° NE 19:38:59 10° NNE
USA 267 4.3 19:35:57 20° E 19:37:44 23° ESE 19:42:40 10° S
Aureole 2 Rocket 2.6 19:38:16 10° NNW 19:42:15 77° ENE 19:46:20 10° SSE
BREEZE-M DEB (TANK) 4.0 19:32:50 10° W 19:43:28 43° N 19:45:54 23° NE
H-2A R/B 3.2 19:42:31 32° ESE 19:43:33 39° ENE 19:47:13 10° N
Cosmos 2333 4.4 19:40:21 10° NNW 19:46:05 75° WSW 19:51:49 10° SSE
BREEZE-M DEB (TANK) 3.1 19:44:26 10° WNW 19:46:07 22° NNW 19:46:34 20° N
BREEZE-M DEB (TANK) 3.9 19:46:44 10° W 19:48:04 15° SW 19:49:39 10° S
Abrixas rocket 4.1 19:46:06 10° NW 19:48:33 19° NNE 19:48:35 19° NNE
In-Cosmos 22 Rocket 4.3 19:46:01 10° N 19:51:41 54° ENE 19:57:21 10° SSE
Cosmos 2123 Rocket 3.9 19:47:22 10° N 19:53:36 63° E 19:59:48 10° SSE
Cosmos 2237 Rocket 2.5 19:48:13 10° N 19:53:40 44° ENE 19:55:32 33° ESE
SWAS 4.3 19:49:46 10° SSW 19:53:58 63° ESE 19:55:42 33° NE
Cosmos 1605 Rocket 3.9 19:49:39 10° SSE 19:55:35 56° E 20:01:31 10° NNE
Cosmos 1300 2.7 19:53:42 10° S 19:57:31 81° W 20:01:22 10° N
MOS 1-B Rocket 4.4 19:56:56 34° E 19:58:00 36° ENE 20:03:33 10° N
Cosmos 2227 Rocket 2.2 19:53:39 10° S 19:59:10 58° ESE 20:03:07 19° NE
Iridium 4 Rocket 4.4 19:55:57 10° SSW 20:01:28 57° W 20:07:16 10° N
BREEZE M DEB (TANK) 3.5 19:59:45 10° NW 20:02:09 22° N 20:02:09 22° N
Sich 1 3.1 20:00:50 10° N 20:05:13 81° W 20:09:38 10° S
SL-16 R/B 3.5 20:01:47 10° N 20:05:09 22° NE 20:05:09 22° NE
Atlas Centaur 2 4.2 20:05:59 10° SW 20:08:14 13° SSW 20:10:42 10° S
Cosmos 494 Rocket 3.8 20:03:11 10° SSW 20:08:17 86° ESE 20:13:13 11° NNE
NOSS 0 Rocket 3.8 20:02:41 10° NNW 20:08:54 81° ENE 20:13:05 22° SSE
Gbstr 26 Del rocket 3.8 20:04:04 10° NW 20:09:15 76° SW 20:12:20 31° SE
Resurs 01 Rocket 3.9 20:12:42 13° NNE 20:12:42 13° NNE 20:13:12 10° N
Cosmos 1980 3.5 20:12:32 10° NNW 20:18:12 75° ENE 20:19:50 47° SE
Meteor 2-17 Rocket 4.5 20:12:58 10° SSE 20:18:47 52° E 20:24:39 10° NNE
Cosmos 1110 Rocket 4.0 20:13:49 10° NNW 20:19:09 83° WSW 20:22:01 28° SSE
Hubble Space Telescope 2.9 20:18:46 10° SW 20:20:49 17° S 20:20:49 17° S
Cosmos 2228 Rocket 4.3 20:21:23 10° S 20:32:27 - N 20:23:45 31° S
Meteor 2-3 Rocket 3.9 20:20:17 10° N 20:25:11 52° NE 20:25:11 52° NE
USA 32 3.9 20:21:04 10° N 20:25:56 68° NE 20:25:56 68° NE
CZ-4C R/B 3.8 20:23:04 10° WSW 20:27:43 30° NW 20:32:56 10° NNE
Cosmos 2333 Rocket 2.7 20:25:30 10° NNW 20:31:08 58° WSW 20:35:23 18° S
Cosmos 1447 Rocket 4.4 20:24:54 10° N 20:31:13 68° E 20:32:06 60° SE
Cosmos 1328 Rocket 3.9 20:29:02 10° SSW 20:33:24 63° W 20:34:24 47° NNW
Cosmos 1633 Rocket 4.1 20:31:21 10° NNW 20:35:34 45° W 20:39:27 12° SSW
Cosmos 2297 Rocket 2.1 20:30:42 10° SSW 20:36:21 83° WNW 20:37:55 50° NNE
Cosmos 2251 Rocket 3.9 20:39:37 10° SSW 20:44:50 62° WNW 20:46:42 39° N
Cosmos 2082 3.9 20:41:16 10° SSW 20:46:58 70° WNW 20:48:19 51° N
Cosmos 2219 Rocket 4.1 20:55:17 10° NW 20:59:51 26° WSW 21:04:26 10° SSW
USA 267 3.9 21:23:21 46° SW 21:23:21 46° SW 21:27:43 10° SW
Cosmos 2237 Rocket 4.1 21:32:53 10° NW 21:37:24 25° W 21:37:26 25° WSW
Cosmos 2227 Rocket 4.4 21:39:28 10° WSW 21:43:37 21° NW 21:45:03 19° NW
SL-16 R/B 4.4 21:45:15 10° NW 21:47:03 20° NW 21:47:03 20° NW
